Home   Weather   Kingston   Past weeks

Flag for Canada Past Weather in Kingston, Ontario, Canada — Yesterday and Last 2 Weeks

Now
57 °F

Overcast.


Feels Like: 55 °F
Forecast: 54 / 63 °F
Wind: 12 mph from Northeast

Location: Kingston

Current Time: Sep 30, 2016 at 11:23:35 AM

Latest Report: Sep 30, 2016 at 11:00 AM


Visibility: 15 mi

Pressure: 30.42 "Hg

Humidity: 72%

Dew Point: 48 °F

Location of KingstonLocation

Past Weather in Kingston — Graph

°F

Kingston Temperature Yesterday

Maximum temperature yesterday: 64 °F (at 3:00 PM)
Minimum temperature yesterday: 52 °F (at 6:00 AM)
Average temperature yesterday: 59 °F

High & Low Weather Summary for the Past Weeks

 TemperatureHumidityPressure
High79 °F (Sep 20, 4:00 PM)100% (Sep 19, 7:00 AM)30.43 "Hg (Sep 19, 7:00 AM)
Low36 °F (Sep 25, 6:00 AM)34% (Sep 24, 4:00 PM)29.82 "Hg (Sep 27, 2:00 PM)
Average64 °F72%30.11 "Hg
* Reported Sep 15 10:00 AM — Sep 30 10:00 AM, Kingston, Weather by CustomWeather, © 2016

Note: Actual official high and low records may vary slightly from our data, if they occured in-between our weather recording intervals... More about our weather records

Advertising

Kingston Weather History for the Previous 24 Hours

Scroll right to see more
 ConditionsComfort  
Time TempWeatherWind HumidityBarometerVisibility
10:00 AM
Fri, Sep 30
55 °FMostly cloudy.9 mph77%30.42 "Hg15 mi
9:00 AM55 °FOvercast.12 mph77%30.42 "Hg15 mi
8:00 AM54 °FPartly sunny.8 mph77%30.42 "Hg15 mi
7:00 AM54 °FPassing clouds.9 mph77%30.42 "Hg15 mi
6:00 AM54 °FPassing clouds.9 mph77%30.42 "Hg15 mi
11:00 PM
Thu, Sep 29
59 °FOvercast.15 mph68%30.42 "Hg15 mi
10:00 PM59 °FOvercast.10 mph68%30.43 "Hg15 mi
9:00 PM61 °FOvercast.12 mph63%30.42 "Hg15 mi
8:00 PM61 °FPassing clouds.13 mph63%30.42 "Hg15 mi
7:00 PM61 °FMostly cloudy.12 mph63%30.41 "Hg15 mi
6:00 PM63 °FPartly sunny.12 mph64%30.40 "Hg15 mi
5:00 PM64 °FBroken clouds.16 mph64%30.39 "Hg15 mi
4:00 PM64 °FMostly cloudy.12 mph64%30.39 "Hg15 mi
3:00 PM64 °FBroken clouds.15 mph60%30.40 "Hg15 mi
2:00 PM63 °FPartly sunny.15 mph64%30.41 "Hg15 mi
1:00 PM61 °FPartly sunny.14 mph68%30.41 "Hg15 mi
12:00 PM59 °FPartly sunny.14 mph72%30.42 "Hg15 mi
11:00 AM57 °FBroken clouds.16 mph77%30.43 "Hg15 mi
Weather by CustomWeather, © 2016

See weather overviewHow to use our weather pages